Location: Aragoneses
(41.0275°N, 4.3847°W)
Time: 16:20:11
(UTC+00:00)

Cosmos-2242 - Pass Details

Date: 11 December 2025
Orbit: 566 x 591 km, 82.5° (Epoch: 16 January)

Event Time Altitude Azimuth Distance (km) Brightness Sun altitude
Rises 18:29:15 0° 181° (S) 2,803 6.6 -18.2°
Reaches altitude 10° 18:31:26 10° 180° (S) 1,910 5.7 -18.6°
Maximum altitude 18:35:38 73° 96° (E) 622 2.8 -19.4°
Enters shadow 18:37:48 28° 17° (NNE) 1,119 4.1 -19.8°
